Flag for U.S.A. Weather past 2 weeks in Paterson, New Jersey, U.S.A.

Now
51 °F

Clear.


Feels Like: 51 °F
Forecast: 48 / 62 °F
Wind: 3 mph from Northeast

Location: Essex County Airport

Current Time: Apr 19, 2015 at 6:10:18 AM

Latest Report: Apr 19, 2015 at 4:53 AM


Visibility: 10 mi

Pressure: 30.18 "Hg

Humidity: 32%

Dew point: 22 °F

Location of PatersonLocation

Historic Weather in Paterson — Graph

°F

Paterson temperature yesterday

Maximum temperature yesterday: 81 °F (at 4:53 PM)
Minimum temperature yesterday: 47 °F (at 5:53 AM)
Average temperature yesterday: 65 °F

Past Weeks' High & Low Weather Summary

 TemperatureHumidityPressure
High81 °F (Apr 18, 4:53 PM)93% (Apr 10, 12:53 AM)30.50 "Hg (Apr 10, 12:53 AM)
Low33 °F (Apr 5, 1:53 AM)12% (Apr 15, 4:53 PM)29.54 "Hg (Apr 4, 4:53 AM)
Average52 °F55%30.17 "Hg
* Reported Apr 4 4:53 AM — Apr 19 4:53 AM, Paterson, Weather by CustomWeather, © 2015

Note: Actual official high and low records may vary slightly from our data, if they occured in-between our weather recording intervals... More about our weather records

Advertising

Paterson weather history for previous 24 hours

 ConditionsComfort  
Time TempWeatherWind HumidityBarometerVisibility
4:53 AM
Sun, Apr 19
51 °FClear.3 mph32%30.18 "Hg10 mi
3:53 AM53 °FClear.5 mph28%30.16 "Hg10 mi
2:53 AM56 °FClear.5 mph28%30.13 "Hg10 mi
1:53 AM57 °FClear.3 mph26%30.11 "Hg10 mi
12:53 AM59 °FClear.5 mph24%30.10 "Hg10 mi
11:53 PM
Sat, Apr 18
62 °FClear.7 mph24%30.08 "Hg10 mi
10:53 PM64 °FClear.9 mph24%30.04 "Hg10 mi
9:53 PM68 °FClear.8 mph15%30.01 "Hg10 mi
8:53 PM71 °FClear.N/A27%29.97 "Hg10 mi
7:53 PM76 °FSunny.8 mph23%29.93 "Hg10 mi
6:53 PM80 °FSunny.7 mph22%29.88 "Hg10 mi
5:53 PM80 °FSunny.10 mph20%29.86 "Hg10 mi
4:53 PM81 °FPassing clouds.15 mph19%29.87 "Hg10 mi
3:53 PM78 °FScattered clouds.5 mph25%29.87 "Hg10 mi
2:53 PM77 °FPassing clouds.N/A26%29.89 "Hg10 mi
1:53 PM76 °FSunny.12 mph26%29.92 "Hg10 mi
12:53 PM75 °FSunny.12 mph27%29.95 "Hg10 mi
11:53 AM73 °FSunny.10 mph28%29.98 "Hg10 mi
10:53 AM69 °FSunny.5 mph36%30.00 "Hg10 mi
9:53 AM65 °FSunny.7 mph49%30.01 "Hg10 mi
8:53 AM60 °FSunny.No wind60%30.03 "Hg10 mi
7:53 AM54 °FSunny.No wind74%30.03 "Hg10 mi
6:53 AM47 °FClear.No wind90%30.01 "Hg10 mi
Weather by CustomWeather, © 2015

See weather overviewHow to use our weather pages